Location: Oshawa
(43.9000°N, 78.8670°W)
Time: 14:08:33
(UTC-04:00)

Explorer 7 - Visible Passes

Search period start: 21 September 2014 00:00
Search period end: 01 October 2014 00:00
Orbit: 492 x 706 km, 50.3° (Epoch: 21 September)

Date Brightness Start Highest point End Pass type
(mag) Time Alt. Az. Time Alt. Az. Time Alt. Az.
21 Sep 8.0 20:43:30 10° WNW 20:47:49 38° N 20:49:49 24° ENE visible
21 Sep 9.2 22:24:42 10° WNW 22:26:28 23° WNW 22:26:28 23° WNW visible
22 Sep 7.6 20:53:56 10° WNW 20:58:20 45° NNE 20:59:34 35° ENE visible
22 Sep 9.6 22:35:05 10° WNW 22:36:13 17° WNW 22:36:13 17° WNW visible
23 Sep 7.1 21:04:17 10° WNW 21:08:49 59° NNE 21:09:21 54° NE visible
23 Sep 10.0 22:45:35 10° WNW 22:46:00 12° WNW 22:46:00 12° WNW visible
24 Sep 8.0 19:33:23 10° WNW 19:37:49 39° N 19:41:59 10° ENE visible
24 Sep 6.8 21:14:37 10° WNW 21:19:10 84° NNE 21:19:10 84° NNE visible
25 Sep 7.7 19:43:49 10° WNW 19:48:21 45° NNE 19:52:21 11° E visible
25 Sep 7.4 21:24:59 10° WNW 21:29:01 59° WSW 21:29:01 59° WSW visible
26 Sep 7.3 19:54:10 10° WNW 19:58:49 58° NNE 20:02:15 16° E visible
26 Sep 8.2 21:35:28 10° WNW 21:38:55 35° WSW 21:38:55 35° WSW visible
27 Sep 7.0 20:04:30 10° WNW 20:09:12 81° NNE 20:12:13 20° ESE visible
27 Sep 9.0 21:46:11 10° W 21:48:53 22° WSW 21:48:53 22° WSW visible
28 Sep 7.2 20:14:51 10° WNW 20:19:29 67° SSW 20:22:16 21° SE visible
28 Sep 9.6 21:57:36 10° W 21:58:57 13° WSW 21:58:57 13° WSW visible
29 Sep 8.0 20:25:17 10° WNW 20:29:39 41° SW 20:32:25 19° SSE visible
30 Sep 8.9 20:35:57 10° W 20:39:42 25° SW 20:42:41 13° S visible
